TimeMST,TemperatureF,Dew PointF,Humidity,Sea Level PressureIn,VisibilityMPH,Wind Direction,Wind SpeedMPH,Gust SpeedMPH,PrecipitationIn,Events,Conditions,WindDirDegrees,DateUTC
12:53 AM,33.1,17.1,52,29.66,10.0,West,15.0,25.3,N/A,,Scattered Clouds,260,2014-01-10 07:53:00
1:53 AM,30.0,17.1,59,29.68,10.0,SSW,10.4,-,N/A,,Mostly Cloudy,210,2014-01-10 08:53:00
2:53 AM,28.0,17.1,63,29.66,10.0,WSW,12.7,-,N/A,,Overcast,240,2014-01-10 09:53:00
3:53 AM,28.9,17.1,61,29.65,10.0,WSW,11.5,-,N/A,,Overcast,240,2014-01-10 10:53:00
4:53 AM,32.0,19.9,61,29.64,10.0,SW,10.4,-,N/A,,Overcast,220,2014-01-10 11:53:00
5:53 AM,30.9,19.9,64,29.66,9.0,WNW,4.6,-,0.00,Snow,Light Snow,290,2014-01-10 12:53:00
6:53 AM,32.0,19.9,61,29.67,10.0,WSW,9.2,-,0.00,,Overcast,240,2014-01-10 13:53:00
7:53 AM,30.9,18.0,59,29.66,10.0,SW,11.5,-,N/A,,Overcast,230,2014-01-10 14:53:00
8:53 AM,32.0,19.0,59,29.66,10.0,WSW,12.7,-,N/A,,Mostly Cloudy,250,2014-01-10 15:53:00
9:53 AM,34.0,19.9,56,29.67,10.0,WSW,13.8,-,N/A,,Mostly Cloudy,240,2014-01-10 16:53:00
10:53 AM,36.0,21.9,57,29.67,10.0,SW,10.4,-,N/A,,Mostly Cloudy,230,2014-01-10 17:53:00
11:53 AM,42.1,24.1,49,29.63,10.0,West,24.2,33.4,N/A,,Scattered Clouds,280,2014-01-10 18:53:00
12:53 PM,41.0,24.1,51,29.62,10.0,West,25.3,32.2,N/A,,Scattered Clouds,280,2014-01-10 19:53:00
2:53 PM,42.1,24.1,49,29.65,10.0,West,25.3,35.7,N/A,,Mostly Cloudy,280,2014-01-10 21:53:00
3:53 PM,41.0,24.1,51,29.69,10.0,WNW,19.6,-,N/A,,Scattered Clouds,290,2014-01-10 22:53:00
4:53 PM,39.9,24.1,53,29.70,10.0,West,16.1,-,N/A,,Scattered Clouds,280,2014-01-10 23:53:00
5:53 PM,39.9,21.9,49,29.73,10.0,WNW,20.7,-,N/A,,Mostly Cloudy,290,2014-01-11 00:53:00
6:53 PM,39.9,21.9,49,29.75,10.0,WNW,20.7,28.8,N/A,,Mostly Cloudy,290,2014-01-11 01:53:00
7:53 PM,39.0,21.0,49,29.80,10.0,WNW,18.4,-,N/A,,Partly Cloudy,290,2014-01-11 02:53:00
8:53 PM,37.9,21.9,53,29.83,10.0,WNW,13.8,-,N/A,,Scattered Clouds,290,2014-01-11 03:53:00
9:53 PM,37.0,21.9,54,29.84,10.0,WNW,15.0,-,N/A,,Mostly Cloudy,300,2014-01-11 04:53:00
10:53 PM,37.9,21.0,51,29.87,10.0,WSW,8.1,-,N/A,,Mostly Cloudy,240,2014-01-11 05:53:00
11:53 PM,37.9,23.0,55,29.84,10.0,NW,12.7,-,N/A,,Mostly Cloudy,310,2014-01-11 06:53:00